Location: Bronschhofen
(47.4788°N, 9.0353°E)
Time: 19:48:32
(UTC+00:00)

Sich 1 Rocket - Pass Details

Date: 20 May 2022
Orbit: 616 x 651 km, 82.5° (Epoch: 01 July)

Event Time Altitude Azimuth Distance (km) Brightness Sun altitude
Rises 00:28:55 0° 345° (NNW) 2,902 8.0 -20.8°
Reaches altitude 10° 00:31:12 10° 340° (NNW) 1,991 6.9 -20.7°
Maximum altitude 00:35:26 48° 266° (W) 811 3.9 -20.5°
Enters shadow 00:36:00 45° 242° (WSW) 845 3.9 -20.5°
